| time (UTC) | temp C | wind direction | speed KPH | gust KPH | rain 1hr cm | rain 24hr cm | rain mn cm | humidity % | barometer mb |
| 20260905223157 | 12 | 252 | 4.8 | 9.7 | 0.00 | 0.00 | 0.00 | 87 | 1008.8 |
| 20260905222656 | 12 | 12 | 4.8 | 6.4 | 0.00 | 0.00 | 0.00 | 87 | 1008.7 |
| 20260905222155 | 12 | 256 | 4.8 | 8.0 | 0.00 | 0.00 | 0.00 | 87 | 1008.7 |
| 20260905221654 | 13 | 258 | 4.8 | 11.3 | 0.00 | 0.00 | 0.00 | 87 | 1008.7 |
| 20260905221153 | 13 | 288 | 4.8 | 9.7 | 0.00 | 0.00 | 0.00 | 87 | 1008.7 |
| 20260905220652 | 12 | 200 | 4.8 | 9.7 | 0.00 | 0.00 | 0.00 | 87 | 1008.6 |
| 20260905220152 | 13 | 262 | 4.8 | 8.0 | 0.00 | 0.00 | 0.00 | 87 | 1008.6 |
| 20260905215651 | 13 | 246 | 4.8 | 8.0 | 0.00 | 0.00 | 0.00 | 87 | 1008.6 |
| 20260905215150 | 13 | 282 | 4.8 | 8.0 | 0.00 | 0.00 | 0.00 | 87 | 1008.6 |
| 20260905214649 | 13 | 250 | 4.8 | 9.7 | 0.00 | 0.00 | 0.00 | 87 | 1008.6 |
| 20260905214148 | 13 | 264 | 4.8 | 11.3 | 0.00 | 0.00 | 0.00 | 87 | 1008.4 |
| 20260905213646 | 13 | 238 | 4.8 | 8.0 | 0.00 | 0.00 | 0.00 | 87 | 1008.4 |
| 20260905213146 | 13 | 270 | 4.8 | 8.0 | 0.00 | 0.00 | 0.00 | 87 | 1008.4 |
| 20260905212645 | 13 | 270 | 4.8 | 6.4 | 0.00 | 0.00 | 0.00 | 87 | 1008.3 |
| 20260905212144 | 13 | 240 | 4.8 | 8.0 | 0.00 | 0.00 | 0.00 | 87 | 1008.3 |
| 20260905211643 | 13 | 246 | 4.8 | 9.7 | 0.00 | 0.00 | 0.00 | 87 | 1008.3 |
| 20260905211141 | 13 | 240 | 4.8 | 9.7 | 0.00 | 0.00 | 0.00 | 87 | 1008.2 |
| 20260905210640 | 13 | 251 | 4.8 | 9.7 | 0.00 | 0.00 | 0.00 | 87 | 1008.2 |
| 20260905210140 | 13 | 120 | 4.8 | 9.7 | 0.00 | 0.00 | 0.00 | 87 | 1008.2 |
| 20260905205638 | 13 | 228 | 4.8 | 9.7 | 0.00 | 0.00 | 0.00 | 87 | 1008.1 |
| 20260905205137 | 13 | 246 | 4.8 | 6.4 | 0.00 | 0.00 | 0.00 | 87 | 1008.1 |
| 20260905204636 | 13 | 251 | 4.8 | 11.3 | 0.00 | 0.00 | 0.00 | 86 | 1008.0 |
| 20260905204135 | 13 | 250 | 4.8 | 8.0 | 0.00 | 0.00 | 0.00 | 87 | 1008.0 |
| 20260905203633 | 13 | 252 | 4.8 | 8.0 | 0.00 | 0.00 | 0.00 | 87 | 1008.1 |
| 20260905203132 | 13 | 342 | 4.8 | 9.7 | 0.00 | 0.00 | 0.00 | 87 | 1008.0 |
| 20260905202631 | 13 | 256 | 4.8 | 9.7 | 0.00 | 0.00 | 0.00 | 87 | 1007.9 |
| 20260905202130 | 13 | 270 | 4.8 | 9.7 | 0.00 | 0.00 | 0.00 | 87 | 1007.8 |
| 20260905201630 | 13 | 288 | 4.8 | 9.7 | 0.00 | 0.00 | 0.00 | 87 | 1007.8 |
| 20260905201128 | 13 | 245 | 3.2 | 6.4 | 0.00 | 0.00 | 0.00 | 87 | 1007.7 |
| 20260905200628 | 13 | 261 | 4.8 | 8.0 | 0.00 | 0.00 | 0.00 | 87 | 1007.7 |
| 20260905200127 | 13 | 240 | 3.2 | 8.0 | 0.00 | 0.00 | 0.00 | 87 | 1007.7 |
| 20260905195626 | 13 | 264 | 3.2 | 8.0 | 0.00 | 0.00 | 0.00 | 87 | 1007.7 |
| 20260905195125 | 13 | 258 | 4.8 | 8.0 | 0.00 | 0.00 | 0.00 | 87 | 1007.5 |
| 20260905194624 | 13 | 264 | 4.8 | 8.0 | 0.00 | 0.00 | 0.00 | 87 | 1007.5 |
| 20260905194123 | 13 | 252 | 4.8 | 11.3 | 0.00 | 0.00 | 0.00 | 87 | 1007.6 |
| 20260905193622 | 13 | 250 | 4.8 | 9.7 | 0.00 | 0.00 | 0.00 | 87 | 1007.6 |
| 20260905193120 | 13 | 252 | 4.8 | 9.7 | 0.00 | 0.00 | 0.00 | 87 | 1007.4 |
| 20260905192620 | 13 | 262 | 4.8 | 6.4 | 0.00 | 0.00 | 0.00 | 88 | 1007.4 |
| 20260905192118 | 13 | 276 | 4.8 | 8.0 | 0.00 | 0.00 | 0.00 | 88 | 1007.4 |
| 20260905191617 | 13 | 94 | 4.8 | 9.7 | 0.00 | 0.00 | 0.00 | 88 | 1007.3 |
| 20260905191116 | 13 | 258 | 4.8 | 8.0 | 0.00 | 0.00 | 0.00 | 88 | 1007.3 |
| 20260905190614 | 13 | 246 | 4.8 | 9.7 | 0.00 | 0.00 | 0.00 | 88 | 1007.2 |
| 20260905190113 | 13 | 234 | 4.8 | 6.4 | 0.00 | 0.00 | 0.00 | 88 | 1007.2 |
| 20260905185613 | 13 | 233 | 4.8 | 6.4 | 0.00 | 0.00 | 0.00 | 88 | 1007.0 |
| 20260905185112 | 13 | 252 | 3.2 | 6.4 | 0.00 | 0.00 | 0.00 | 88 | 1007.0 |
| 20260905184611 | 13 | 250 | 3.2 | 6.4 | 0.00 | 0.00 | 0.00 | 88 | 1007.0 |
| 20260905184110 | 13 | 228 | 4.8 | 6.4 | 0.00 | 0.00 | 0.00 | 88 | 1006.9 |
| 20260905183609 | 13 | 244 | 3.2 | 6.4 | 0.00 | 0.00 | 0.00 | 88 | 1006.9 |
| 20260905183108 | 13 | 264 | 3.2 | 6.4 | 0.00 | 0.00 | 0.00 | 87 | 1006.9 |
| 20260905182607 | 13 | 274 | 3.2 | 8.0 | 0.00 | 0.00 | 0.00 | 87 | 1006.8 |
| 20260905182106 | 13 | 282 | 4.8 | 8.0 | 0.00 | 0.00 | 0.00 | 86 | 1006.9 |
| 20260905181605 | 13 | 270 | 4.8 | 8.0 | 0.00 | 0.00 | 0.00 | 86 | 1006.9 |
| 20260905181104 | 13 | 239 | 4.8 | 8.0 | 0.00 | 0.00 | 0.00 | 86 | 1006.8 |
| 20260905180603 | 13 | 252 | 4.8 | 9.7 | 0.00 | 0.00 | 0.00 | 86 | 1006.8 |
| 20260905175601 | 13 | 256 | 4.8 | 9.7 | 0.00 | 0.00 | 0.00 | 87 | 1006.7 |
| 20260905175100 | 13 | 276 | 4.8 | 9.7 | 0.00 | 0.00 | 0.00 | 87 | 1006.6 |
| 20260905174600 | 13 | 249 | 4.8 | 8.0 | 0.00 | 0.00 | 0.00 | 87 | 1006.5 |
| 20260905174058 | 13 | 246 | 4.8 | 6.4 | 0.00 | 0.00 | 0.00 | 87 | 1006.5 |
| 20260905173556 | 13 | 270 | 4.8 | 8.0 | 0.00 | 0.00 | 0.00 | 88 | 1006.3 |
| 20260905173056 | 13 | 250 | 4.8 | 8.0 | 0.00 | 0.00 | 0.00 | 88 | 1006.3 |
| 20260905172554 | 13 | 270 | 4.8 | 6.4 | 0.00 | 0.00 | 0.00 | 88 | 1006.2 |
| 20260905172054 | 13 | 270 | 3.2 | 6.4 | 0.00 | 0.00 | 0.00 | 87 | 1006.2 |
| 20260905171553 | 13 | 255 | 4.8 | 8.0 | 0.00 | 0.00 | 0.00 | 87 | 1006.2 |
| 20260905171052 | 13 | 336 | 4.8 | 8.0 | 0.00 | 0.00 | 0.00 | 86 | 1006.3 |
| 20260905170550 | 13 | 262 | 6.4 | 9.7 | 0.00 | 0.00 | 0.00 | 84 | 1006.3 |
| 20260905170049 | 13 | 294 | 4.8 | 8.0 | 0.00 | 0.00 | 0.00 | 84 | 1006.3 |
| 20260905165549 | 13 | 277 | 4.8 | 8.0 | 0.00 | 0.00 | 0.00 | 84 | 1006.1 |
| 20260905165047 | 13 | 192 | 3.2 | 8.0 | 0.00 | 0.00 | 0.00 | 85 | 1006.1 |
| 20260905164547 | 14 | 336 | 4.8 | 6.4 | 0.03 | 0.00 | 0.00 | 85 | 1006.1 |
| 20260905164046 | 13 | 20 | 4.8 | 9.7 | 0.03 | 0.00 | 0.00 | 85 | 1006.1 |
| 20260905163544 | 14 | 96 | 4.8 | 9.7 | 0.03 | 0.00 | 0.00 | 87 | 1006.1 |
| 20260905163043 | 14 | 252 | 4.8 | 9.7 | 0.00 | 0.00 | 0.00 | 88 | 1006.3 |
| 20260905162542 | 14 | 255 | 4.8 | 8.0 | 0.00 | 0.00 | 0.00 | 87 | 1006.5 |
| 20260905162041 | 15 | 249 | 8.0 | 16.1 | 0.03 | 0.00 | 0.00 | 85 | 1006.5 |
| 20260905161540 | 15 | 255 | 6.4 | 11.3 | 0.03 | 0.00 | 0.00 | 83 | 1006.5 |
| 20260905161039 | 15 | 256 | 3.2 | 6.4 | 0.03 | 0.00 | 0.00 | 85 | 1006.3 |
| 20260905160537 | 15 | 262 | 3.2 | 4.8 | 0.00 | 0.00 | 0.00 | 84 | 1005.9 |
| 20260905160036 | 15 | 246 | 3.2 | 6.4 | 0.00 | 0.00 | 0.00 | 78 | 1005.4 |
| 20260905155536 | 15 | 252 | 1.6 | 3.2 | 0.00 | 0.00 | 0.00 | 78 | 1005.1 |
| 20260905155034 | 15 | 245 | 1.6 | 4.8 | 0.00 | 0.00 | 0.00 | 78 | 1005.1 |
| 20260905154533 | 15 | 269 | 1.6 | 4.8 | 0.00 | 0.00 | 0.00 | 80 | 1005.1 |
| 20260905154031 | 16 | 258 | 1.6 | 4.8 | 0.00 | 0.00 | 0.00 | 79 | 1005.2 |
| 20260905153531 | 16 | 264 | 3.2 | 4.8 | 0.00 | 0.00 | 0.00 | 78 | 1005.2 |
| 20260905153029 | 15 | 244 | 3.2 | 6.4 | 0.00 | 0.00 | 0.00 | 76 | 1005.3 |
| 20260905152528 | 15 | 249 | 1.6 | 3.2 | 0.00 | 0.00 | 0.00 | 79 | 1005.3 |
| 20260905152028 | 15 | 43 | 1.6 | 3.2 | 0.00 | 0.00 | 0.00 | 80 | 1005.3 |
| 20260905151526 | 15 | 246 | 1.6 | 4.8 | 0.00 | 0.00 | 0.00 | 80 | 1005.3 |
| 20260905151025 | 15 | 270 | 1.6 | 3.2 | 0.00 | 0.00 | 0.00 | 80 | 1005.4 |
| 20260905150523 | 14 | 261 | 3.2 | 6.4 | 0.00 | 0.00 | 0.00 | 79 | 1005.4 |
| 20260905150022 | 14 | 258 | 4.8 | 9.7 | 0.00 | 0.00 | 0.00 | 79 | 1005.5 |
| 20260905145522 | 15 | 232 | 6.4 | 9.7 | 0.00 | 0.00 | 0.00 | 79 | 1005.8 |
| 20260905145020 | 17 | 234 | 8.0 | 16.1 | 0.00 | 0.00 | 0.00 | 72 | 1006.1 |
| 20260905144520 | 17 | 269 | 4.8 | 9.7 | 0.00 | 0.00 | 0.00 | 66 | 1005.6 |
| 20260905144018 | 18 | 253 | 6.4 | 14.5 | 0.00 | 0.00 | 0.00 | 64 | 1005.3 |
| 20260905143517 | 18 | 246 | 4.8 | 9.7 | 0.00 | 0.00 | 0.00 | 65 | 1005.2 |
| 20260905143016 | 18 | 246 | 4.8 | 9.7 | 0.00 | 0.00 | 0.00 | 64 | 1005.0 |
| 20260905142516 | 18 | 234 | 4.8 | 8.0 | 0.00 | 0.00 | 0.00 | 63 | 1005.0 |
| 20260905142014 | 18 | 264 | 4.8 | 11.3 | 0.00 | 0.00 | 0.00 | 63 | 1005.1 |
| 20260905141513 | 18 | 12 | 6.4 | 11.3 | 0.00 | 0.00 | 0.00 | 63 | 1005.1 |
| 20260905141012 | 18 | 54 | 6.4 | 16.1 | 0.00 | 0.00 | 0.00 | 63 | 1005.3 |
| 20260905140511 | 18 | 246 | 6.4 | 11.3 | 0.00 | 0.00 | 0.00 | 62 | 1005.4 |
| 20260905140010 | 18 | 247 | 6.4 | 14.5 | 0.00 | 0.00 | 0.00 | 61 | 1005.0 |
| 20260905135509 | 18 | 270 | 4.8 | 14.5 | 0.00 | 0.00 | 0.00 | 61 | 1005.3 |
| 20260905135008 | 19 | 244 | 4.8 | 8.0 | 0.00 | 0.00 | 0.00 | 61 | 1004.9 |
| 20260905134507 | 18 | 256 | 4.8 | 9.7 | 0.00 | 0.00 | 0.00 | 60 | 1005.0 |
| 20260905134006 | 18 | 251 | 6.4 | 9.7 | 0.00 | 0.00 | 0.00 | 60 | 1005.1 |
| 20260905133505 | 19 | 262 | 6.4 | 14.5 | 0.00 | 0.00 | 0.00 | 58 | 1005.0 |
| 20260905133004 | 20 | 298 | 8.0 | 16.1 | 0.00 | 0.00 | 0.00 | 57 | 1005.0 |
| 20260905132504 | 20 | 265 | 6.4 | 16.1 | 0.00 | 0.00 | 0.00 | 56 | 1004.9 |
| 20260905132003 | 20 | 234 | 6.4 | 14.5 | 0.00 | 0.00 | 0.00 | 57 | 1004.9 |
| 20260905131502 | 19 | 253 | 8.0 | 11.3 | 0.00 | 0.00 | 0.00 | 57 | 1005.1 |
| 20260905131001 | 19 | 109 | 6.4 | 16.1 | 0.00 | 0.00 | 0.00 | 57 | 1005.0 |
| 20260905130500 | 19 | 206 | 8.0 | 12.9 | 0.00 | 0.00 | 0.00 | 58 | 1004.9 |
| 20260905125959 | 19 | 303 | 6.4 | 14.5 | 0.00 | 0.00 | 0.00 | 63 | 1004.9 |
| 20260905125458 | 20 | 66 | 4.8 | 9.7 | 0.00 | 0.00 | 0.00 | 64 | 1004.6 |
| 20260905124957 | 20 | 66 | 4.8 | 9.7 | 0.00 | 0.00 | 0.00 | 66 | 1004.6 |
| 20260905124457 | 20 | 265 | 4.8 | 8.0 | 0.00 | 0.00 | 0.00 | 66 | 1004.8 |
| 20260905123955 | 19 | 193 | 4.8 | 8.0 | 0.00 | 0.00 | 0.00 | 68 | 1004.7 |
| 20260905123454 | 18 | 353 | 3.2 | 8.0 | 0.00 | 0.00 | 0.00 | 71 | 1004.7 |
| 20260905122953 | 18 | 269 | 3.2 | 8.0 | 0.00 | 0.00 | 0.00 | 73 | 1004.7 |
| 20260905122452 | 17 | 132 | 3.2 | 6.4 | 0.00 | 0.00 | 0.00 | 75 | 1004.8 |
| 20260905121951 | 17 | 276 | 3.2 | 4.8 | 0.00 | 0.00 | 0.00 | 77 | 1004.8 |
| 20260905121449 | 16 | 264 | 3.2 | 8.0 | 0.00 | 0.00 | 0.00 | 79 | 1005.0 |
| 20260905120949 | 16 | 336 | 3.2 | 8.0 | 0.00 | 0.00 | 0.00 | 80 | 1004.9 |
| 20260905120448 | 16 | 264 | 4.8 | 8.0 | 0.00 | 0.00 | 0.00 | 78 | 1005.1 |
| 20260905115947 | 16 | 269 | 3.2 | 6.4 | 0.00 | 0.00 | 0.00 | 78 | 1005.1 |
| 20260905115446 | 15 | 148 | 1.6 | 3.2 | 0.00 | 0.00 | 0.00 | 82 | 1005.1 |
| 20260905114944 | 15 | 256 | 1.6 | 3.2 | 0.00 | 0.00 | 0.00 | 83 | 1005.1 |
| 20260905114443 | 15 | 270 | 1.6 | 4.8 | 0.00 | 0.00 | 0.00 | 83 | 1005.3 |
| 20260905113942 | 14 | 342 | 3.2 | 6.4 | 0.00 | 0.00 | 0.00 | 82 | 1005.3 |
| 20260905113441 | 14 | 278 | 4.8 | 6.4 | 0.00 | 0.00 | 0.00 | 83 | 1005.3 |
| 20260905112940 | 13 | 240 | 4.8 | 8.0 | 0.00 | 0.00 | 0.00 | 84 | 1005.3 |
| 20260905112439 | 13 | 284 | 3.2 | 4.8 | 0.00 | 0.00 | 0.00 | 85 | 1005.4 |
| 20260905111939 | 13 | 270 | 3.2 | 6.4 | 0.00 | 0.00 | 0.00 | 85 | 1005.6 |
| 20260905111437 | 14 | 306 | 6.4 | 17.7 | 0.00 | 0.00 | 0.00 | 83 | 1005.8 |
| 20260905110937 | 15 | 237 | 8.0 | 14.5 | 0.00 | 0.00 | 0.00 | 77 | 1006.0 |
| 20260905110435 | 16 | 247 | 4.8 | 9.7 | 0.00 | 0.00 | 0.00 | 73 | 1005.3 |
| 20260905105934 | 17 | 258 | 6.4 | 14.5 | 0.00 | 0.00 | 0.00 | 67 | 1005.1 |
| 20260905105433 | 18 | 234 | 6.4 | 16.1 | 0.00 | 0.00 | 0.00 | 61 | 1005.0 |
| 20260905104932 | 18 | 296 | 6.4 | 9.7 | 0.00 | 0.00 | 0.00 | 60 | 1005.0 |
| 20260905104431 | 18 | 223 | 4.8 | 11.3 | 0.00 | 0.00 | 0.00 | 60 | 1005.1 |
| 20260905103930 | 17 | 238 | 6.4 | 11.3 | 0.00 | 0.00 | 0.00 | 61 | 1005.0 |
| 20260905103429 | 17 | 269 | 8.0 | 14.5 | 0.00 | 0.00 | 0.00 | 63 | 1005.0 |
| 20260905102927 | 17 | 354 | 4.8 | 8.0 | 0.00 | 0.00 | 0.00 | 64 | 1004.9 |
| 20260905102426 | 17 | 268 | 6.4 | 11.3 | 0.00 | 0.00 | 0.00 | 63 | 1004.9 |
| 20260905101926 | 18 | 245 | 6.4 | 14.5 | 0.00 | 0.00 | 0.00 | 60 | 1004.8 |
| 20260905101424 | 18 | 175 | 8.0 | 11.3 | 0.00 | 0.00 | 0.00 | 61 | 1004.7 |
| 20260905100924 | 18 | 270 | 8.0 | 12.9 | 0.00 | 0.00 | 0.00 | 60 | 1004.7 |
| 20260905100423 | 18 | 250 | 6.4 | 16.1 | 0.00 | 0.00 | 0.00 | 60 | 1004.7 |
| 20260905095922 | 18 | 230 | 8.0 | 14.5 | 0.00 | 0.00 | 0.00 | 59 | 1005.0 |
| 20260905095421 | 18 | 317 | 8.0 | 17.7 | 0.00 | 0.00 | 0.00 | 59 | 1004.9 |
| 20260905094920 | 18 | 270 | 8.0 | 16.1 | 0.00 | 0.00 | 0.00 | 59 | 1004.8 |
| 20260905094419 | 18 | 265 | 9.7 | 16.1 | 0.00 | 0.00 | 0.00 | 59 | 1004.7 |
| 20260905093918 | 18 | 254 | 6.4 | 16.1 | 0.00 | 0.00 | 0.00 | 58 | 1004.7 |
| 20260905093417 | 18 | 253 | 6.4 | 12.9 | 0.00 | 0.00 | 0.00 | 60 | 1004.7 |
| 20260905092916 | 18 | 270 | 8.0 | 16.1 | 0.00 | 0.00 | 0.00 | 60 | 1004.8 |
| 20260905092415 | 18 | 261 | 8.0 | 16.1 | 0.00 | 0.00 | 0.00 | 59 | 1004.8 |
| 20260905091915 | 18 | 205 | 6.4 | 11.3 | 0.00 | 0.00 | 0.00 | 60 | 1004.7 |
| 20260905091413 | 18 | 235 | 8.0 | 16.1 | 0.00 | 0.00 | 0.00 | 60 | 1004.6 |
| 20260905090913 | 18 | 276 | 8.0 | 16.1 | 0.00 | 0.00 | 0.00 | 61 | 1004.8 |
| 20260905090412 | 18 | 222 | 8.0 | 16.1 | 0.00 | 0.00 | 0.00 | 60 | 1004.7 |
| 20260905085911 | 18 | 60 | 6.4 | 14.5 | 0.00 | 0.00 | 0.00 | 61 | 1004.6 |
| 20260905085410 | 17 | 300 | 6.4 | 14.5 | 0.00 | 0.00 | 0.00 | 63 | 1004.5 |
| 20260905084908 | 18 | 269 | 6.4 | 9.7 | 0.00 | 0.00 | 0.00 | 62 | 1004.5 |
| 20260905084407 | 18 | 266 | 6.4 | 9.7 | 0.00 | 0.00 | 0.00 | 64 | 1004.5 |
| 20260905083906 | 17 | 250 | 6.4 | 16.1 | 0.00 | 0.00 | 0.00 | 64 | 1004.4 |
| 20260905083405 | 17 | 246 | 6.4 | 14.5 | 0.00 | 0.00 | 0.00 | 63 | 1004.4 |
| 20260905082904 | 17 | 222 | 6.4 | 16.1 | 0.00 | 0.00 | 0.00 | 65 | 1004.3 |
| 20260905082404 | 17 | 270 | 6.4 | 16.1 | 0.00 | 0.00 | 0.00 | 66 | 1004.3 |
| 20260905081902 | 17 | 298 | 6.4 | 16.1 | 0.00 | 0.00 | 0.00 | 66 | 1004.4 |
| 20260905081401 | 17 | 245 | 6.4 | 9.7 | 0.00 | 0.00 | 0.00 | 66 | 1004.2 |
| 20260905080859 | 17 | 247 | 8.0 | 14.5 | 0.00 | 0.00 | 0.00 | 66 | 1004.1 |
| 20260905080358 | 16 | 246 | 9.7 | 16.1 | 0.00 | 0.00 | 0.00 | 68 | 1004.0 |
| 20260905075857 | 17 | 264 | 6.4 | 9.7 | 0.00 | 0.00 | 0.00 | 68 | 1004.0 |
| 20260905075356 | 17 | 275 | 8.0 | 16.1 | 0.00 | 0.00 | 0.00 | 68 | 1004.0 |
| 20260905074855 | 17 | 6 | 6.4 | 9.7 | 0.00 | 0.00 | 0.00 | 67 | 1004.0 |
| 20260905074354 | 17 | 254 | 6.4 | 11.3 | 0.00 | 0.00 | 0.00 | 67 | 1003.8 |
| 20260905073853 | 17 | 234 | 6.4 | 9.7 | 0.00 | 0.00 | 0.00 | 68 | 1003.7 |
| 20260905073353 | 16 | 236 | 6.4 | 9.7 | 0.00 | 0.00 | 0.00 | 70 | 1003.7 |
| 20260905072851 | 16 | 256 | 6.4 | 11.3 | 0.00 | 0.00 | 0.00 | 70 | 1003.7 |
| 20260905072350 | 16 | 254 | 6.4 | 14.5 | 0.00 | 0.00 | 0.00 | 71 | 1003.8 |
| 20260905071849 | 16 | 253 | 8.0 | 17.7 | 0.00 | 0.00 | 0.00 | 72 | 1003.8 |
| 20260905071347 | 16 | 250 | 6.4 | 11.3 | 0.00 | 0.00 | 0.00 | 73 | 1003.7 |
| 20260905070847 | 16 | 240 | 6.4 | 11.3 | 0.00 | 0.00 | 0.00 | 74 | 1003.5 |
| 20260905070346 | 16 | 269 | 6.4 | 14.5 | 0.00 | 0.00 | 0.00 | 76 | 1003.4 |
| 20260905065845 | 15 | 256 | 4.8 | 9.7 | 0.00 | 0.00 | 0.00 | 77 | 1003.4 |
| 20260905065343 | 15 | 246 | 4.8 | 11.3 | 0.00 | 0.00 | 0.00 | 78 | 1003.5 |
| 20260905064842 | 15 | 257 | 4.8 | 8.0 | 0.00 | 0.00 | 0.00 | 81 | 1003.5 |
| 20260905064341 | 15 | 240 | 6.4 | 9.7 | 0.00 | 0.00 | 0.00 | 81 | 1003.4 |
| 20260905063840 | 15 | 252 | 4.8 | 9.7 | 0.00 | 0.00 | 0.00 | 81 | 1003.4 |
| 20260905063339 | 15 | 272 | 4.8 | 8.0 | 0.00 | 0.00 | 0.00 | 80 | 1003.3 |
| 20260905062838 | 15 | 269 | 3.2 | 6.4 | 0.00 | 0.00 | 0.00 | 79 | 1003.2 |
| 20260905062337 | 15 | 249 | 3.2 | 6.4 | 0.00 | 0.00 | 0.00 | 78 | 1003.2 |
| 20260905061836 | 15 | 267 | 4.8 | 6.4 | 0.00 | 0.00 | 0.00 | 77 | 1003.2 |
| 20260905061335 | 15 | 36 | 6.4 | 11.3 | 0.00 | 0.00 | 0.00 | 75 | 1003.1 |
| 20260905060835 | 15 | 297 | 6.4 | 12.9 | 0.00 | 0.00 | 0.00 | 76 | 1003.1 |
| 20260905060333 | 15 | 264 | 6.4 | 11.3 | 0.00 | 0.00 | 0.00 | 77 | 1003.0 |
| 20260905055831 | 15 | 263 | 8.0 | 16.1 | 0.00 | 0.00 | 0.00 | 76 | 1003.1 |
| 20260905055331 | 15 | 262 | 6.4 | 16.1 | 0.00 | 0.00 | 0.00 | 78 | 1003.0 |
| 20260905054830 | 15 | 271 | 6.4 | 11.3 | 0.00 | 0.00 | 0.00 | 79 | 1002.9 |
| 20260905054329 | 15 | 307 | 4.8 | 9.7 | 0.00 | 0.00 | 0.00 | 79 | 1002.8 |
| 20260905053828 | 15 | 255 | 4.8 | 8.0 | 0.00 | 0.00 | 0.00 | 80 | 1002.7 |
| 20260905053327 | 15 | 258 | 6.4 | 14.5 | 0.00 | 0.00 | 0.00 | 80 | 1002.8 |
| 20260905052826 | 15 | 258 | 4.8 | 6.4 | 0.00 | 0.00 | 0.00 | 80 | 1002.7 |
| 20260905052325 | 15 | 240 | 4.8 | 9.7 | 0.00 | 0.00 | 0.00 | 80 | 1002.6 |
| 20260905051824 | 15 | 205 | 4.8 | 8.0 | 0.00 | 0.00 | 0.00 | 80 | 1002.6 |
| 20260905051323 | 15 | 246 | 4.8 | 9.7 | 0.00 | 0.00 | 0.00 | 81 | 1002.5 |
| 20260905050822 | 15 | 54 | 4.8 | 8.0 | 0.00 | 0.00 | 0.00 | 81 | 1002.5 |
| 20260905050321 | 15 | 256 | 6.4 | 9.7 | 0.00 | 0.00 | 0.00 | 81 | 1002.4 |
| 20260905045820 | 15 | 256 | 4.8 | 8.0 | 0.00 | 0.00 | 0.00 | 81 | 1002.5 |
| 20260905045319 | 15 | 228 | 4.8 | 9.7 | 0.00 | 0.00 | 0.00 | 81 | 1002.4 |
| 20260905044819 | 15 | 246 | 6.4 | 11.3 | 0.00 | 0.00 | 0.00 | 81 | 1002.3 |
| 20260905044317 | 15 | 264 | 4.8 | 8.0 | 0.00 | 0.00 | 0.00 | 81 | 1002.3 |
| 20260905043816 | 15 | 172 | 4.8 | 9.7 | 0.00 | 0.00 | 0.00 | 81 | 1002.2 |
| 20260905043315 | 15 | 263 | 3.2 | 6.4 | 0.00 | 0.00 | 0.00 | 81 | 1002.1 |
| 20260905042814 | 15 | 262 | 4.8 | 9.7 | 0.00 | 0.00 | 0.00 | 82 | 1002.0 |
| 20260905042313 | 15 | 264 | 6.4 | 11.3 | 0.00 | 0.00 | 0.00 | 82 | 1002.0 |
| 20260905041812 | 15 | 258 | 4.8 | 9.7 | 0.00 | 0.00 | 0.00 | 82 | 1001.9 |
| 20260905041311 | 15 | 252 | 4.8 | 8.0 | 0.00 | 0.00 | 0.00 | 82 | 1002.0 |
| 20260905040810 | 15 | 302 | 4.8 | 8.0 | 0.00 | 0.00 | 0.00 | 82 | 1001.8 |
| 20260905040309 | 15 | 252 | 4.8 | 9.7 | 0.00 | 0.00 | 0.00 | 82 | 1001.7 |
| 20260905035808 | 15 | 258 | 3.2 | 6.4 | 0.00 | 0.00 | 0.00 | 82 | 1001.7 |
| 20260905035307 | 15 | 94 | 4.8 | 8.0 | 0.00 | 0.00 | 0.00 | 82 | 1001.6 |
| 20260905034807 | 15 | 246 | 4.8 | 9.7 | 0.00 | 0.00 | 0.00 | 82 | 1001.6 |
| 20260905034305 | 15 | 246 | 4.8 | 9.7 | 0.00 | 0.00 | 0.00 | 82 | 1001.5 |
| 20260905033804 | 15 | 262 | 6.4 | 11.3 | 0.00 | 0.00 | 0.00 | 82 | 1001.4 |
| 20260905033302 | 15 | 291 | 6.4 | 9.7 | 0.00 | 0.00 | 0.00 | 82 | 1001.4 |
| 20260905032802 | 15 | 264 | 4.8 | 9.7 | 0.00 | 0.00 | 0.00 | 82 | 1001.3 |
| 20260905032301 | 15 | 288 | 4.8 | 11.3 | 0.00 | 0.00 | 0.00 | 82 | 1001.3 |
| 20260905031800 | 15 | 258 | 6.4 | 11.3 | 0.00 | 0.00 | 0.00 | 82 | 1001.2 |
| 20260905031258 | 15 | 233 | 6.4 | 9.7 | 0.00 | 0.00 | 0.00 | 81 | 1001.2 |
| 20260905030757 | 15 | 258 | 4.8 | 9.7 | 0.00 | 0.00 | 0.00 | 81 | 1001.1 |
| 20260905030257 | 15 | 252 | 4.8 | 9.7 | 0.00 | 0.00 | 0.00 | 81 | 1001.1 |
| 20260905025756 | 15 | 263 | 6.4 | 9.7 | 0.00 | 0.00 | 0.00 | 82 | 1001.0 |
| 20260905025254 | 15 | 250 | 4.8 | 8.0 | 0.00 | 0.00 | 0.00 | 82 | 1000.8 |
| 20260905024754 | 15 | 261 | 4.8 | 9.7 | 0.00 | 0.00 | 0.00 | 82 | 1000.8 |
| 20260905024253 | 15 | 228 | 4.8 | 8.0 | 0.00 | 0.00 | 0.00 | 82 | 1000.7 |
| 20260905023752 | 15 | 324 | 4.8 | 9.7 | 0.00 | 0.00 | 0.00 | 81 | 1000.7 |
| 20260905023251 | 16 | 252 | 3.2 | 8.0 | 0.00 | 0.00 | 0.00 | 81 | 1000.7 |
| 20260905022750 | 16 | 257 | 4.8 | 11.3 | 0.00 | 0.00 | 0.00 | 80 | 1000.7 |
| 20260905022249 | 16 | 258 | 4.8 | 8.0 | 0.00 | 0.00 | 0.00 | 79 | 1000.8 |
| 20260905021747 | 16 | 250 | 4.8 | 9.7 | 0.00 | 0.00 | 0.00 | 78 | 1000.7 |
| 20260905021247 | 16 | 252 | 4.8 | 8.0 | 0.00 | 0.00 | 0.00 | 77 | 1000.7 |
| 20260905020746 | 16 | 240 | 4.8 | 9.7 | 0.00 | 0.00 | 0.00 | 76 | 1000.6 |
| 20260905020245 | 16 | 252 | 4.8 | 9.7 | 0.00 | 0.00 | 0.00 | 76 | 1000.6 |
| 20260905015743 | 16 | 246 | 6.4 | 9.7 | 0.00 | 0.00 | 0.00 | 76 | 1000.6 |
| 20260905015242 | 16 | 261 | 4.8 | 14.5 | 0.00 | 0.00 | 0.00 | 77 | 1000.5 |
| 20260905014742 | 16 | 249 | 4.8 | 9.7 | 0.00 | 0.00 | 0.00 | 78 | 1000.4 |
| 20260905014240 | 16 | 244 | 4.8 | 9.7 | 0.00 | 0.00 | 0.00 | 79 | 1000.4 |
| 20260905013739 | 16 | 258 | 4.8 | 9.7 | 0.00 | 0.00 | 0.00 | 80 | 1000.3 |
| 20260905013238 | 16 | 354 | 4.8 | 9.7 | 0.00 | 0.00 | 0.00 | 80 | 1000.3 |
| 20260905012737 | 16 | 264 | 4.8 | 8.0 | 0.00 | 0.00 | 0.00 | 80 | 1000.3 |
| 20260905012236 | 16 | 300 | 4.8 | 9.7 | 0.00 | 0.00 | 0.00 | 80 | 1000.4 |
| 20260905011735 | 16 | 252 | 4.8 | 8.0 | 0.00 | 0.00 | 0.00 | 80 | 1000.0 |
| 20260905011233 | 16 | 243 | 4.8 | 8.0 | 0.00 | 0.00 | 0.00 | 80 | 1000.1 |
| 20260905010732 | 16 | 261 | 3.2 | 8.0 | 0.00 | 0.00 | 0.00 | 80 | 1000.2 |
| 20260905010231 | 16 | 234 | 6.4 | 11.3 | 0.00 | 0.00 | 0.00 | 80 | 1000.3 |
| 20260905005730 | 16 | 321 | 4.8 | 9.7 | 0.00 | 0.00 | 0.00 | 81 | 1000.1 |
| 20260905005230 | 16 | 286 | 6.4 | 12.9 | 0.00 | 0.00 | 0.00 | 80 | 1000.0 |
| 20260905004728 | 16 | 276 | 4.8 | 8.0 | 0.00 | 0.00 | 0.00 | 80 | 1000.0 |
| 20260905004227 | 16 | 255 | 6.4 | 16.1 | 0.00 | 0.00 | 0.00 | 80 | 999.8 |
| 20260905003726 | 16 | 245 | 4.8 | 11.3 | 0.00 | 0.00 | 0.00 | 81 | 999.9 |
| 20260905003224 | 16 | 258 | 6.4 | 14.5 | 0.00 | 0.00 | 0.00 | 80 | 999.7 |
| 20260905002724 | 16 | 228 | 6.4 | 12.9 | 0.00 | 0.00 | 0.00 | 80 | 999.7 |
| 20260905002223 | 16 | 296 | 6.4 | 11.3 | 0.00 | 0.00 | 0.00 | 81 | 999.4 |
| 20260905001721 | 16 | 250 | 6.4 | 14.5 | 0.00 | 0.00 | 0.00 | 81 | 999.2 |
| 20260905001221 | 16 | 300 | 6.4 | 12.9 | 0.00 | 0.00 | 0.00 | 82 | 999.3 |
| 20260905000719 | 16 | 240 | 6.4 | 11.3 | 0.00 | 0.00 | 0.00 | 82 | 999.2 |
| 20260905000219 | 16 | 268 | 6.4 | 12.9 | 0.00 | 0.00 | 0.00 | 83 | 999.3 |
| 20260904235717 | 16 | 244 | 6.4 | 11.3 | 0.00 | 0.00 | 0.00 | 83 | 999.4 |
| 20260904235216 | 16 | 272 | 4.8 | 9.7 | 0.00 | 0.00 | 0.00 | 84 | 999.2 |
| 20260904234716 | 16 | 245 | 6.4 | 11.3 | 0.00 | 0.00 | 0.00 | 84 | 999.3 |
| 20260904234214 | 16 | 246 | 6.4 | 14.5 | 0.00 | 0.00 | 0.00 | 84 | 999.3 |
| 20260904233713 | 16 | 255 | 6.4 | 11.3 | 0.00 | 0.00 | 0.00 | 84 | 999.2 |
| 20260904233212 | 16 | 148 | 4.8 | 9.7 | 0.00 | 0.00 | 0.00 | 85 | 999.2 |
| 20260904232711 | 16 | 282 | 4.8 | 9.7 | 0.00 | 0.00 | 0.00 | 85 | 999.0 |
| 20260904232210 | 16 | 252 | 8.0 | 16.1 | 0.00 | 0.00 | 0.00 | 84 | 999.1 |
| 20260904231709 | 16 | 210 | 4.8 | 11.3 | 0.00 | 0.00 | 0.00 | 85 | 998.9 |
| 20260904231208 | 16 | 270 | 6.4 | 9.7 | 0.00 | 0.00 | 0.00 | 85 | 998.9 |
| 20260904230706 | 16 | 270 | 6.4 | 11.3 | 0.00 | 0.00 | 0.00 | 85 | 998.6 |
| 20260904230205 | 16 | 255 | 6.4 | 9.7 | 0.00 | 0.00 | 0.00 | 85 | 998.6 |
| 20260904225705 | 16 | 303 | 6.4 | 9.7 | 0.00 | 0.00 | 0.00 | 85 | 998.4 |
| 20260904225203 | 16 | 282 | 6.4 | 11.3 | 0.00 | 0.00 | 0.00 | 84 | 998.5 |
| 20260904224703 | 16 | 264 | 6.4 | 9.7 | 0.00 | 0.00 | 0.00 | 85 | 998.5 |
| 20260904224201 | 16 | 258 | 4.8 | 8.0 | 0.00 | 0.00 | 0.00 | 85 | 998.4 |
| 20260904223700 | 16 | 243 | 4.8 | 9.7 | 0.00 | 0.00 | 0.00 | 84 | 998.5 |